Location: McFarlands Corners
(41.4117°N, 81.3382°W)
Time: 09:20:27
(UTC+00:00)

Vanguard 1 Rocket - All Passes

Search period start: 16 February 2026 00:00
Search period end: 26 February 2026 00:00
Orbit: 652 x 4215 km, 34.3° (Epoch: 12 February)

Date Brightness Start Highest point End Pass type
(mag) Time Alt. Az. Time Alt. Az. Time Alt. Az.
16 Feb - 00:53:18 10° W 01:12:50 47° SSW 01:36:24 10° SSE visible
16 Feb - 03:27:07 10° W 03:41:54 19° SW 03:56:34 10° SSW visible
16 Feb - 16:30:05 10° SSE 16:34:51 16° SE 16:41:16 10° E daylight
16 Feb - 18:49:32 10° SW 18:58:48 51° SSE 19:16:31 10° E daylight
16 Feb - 21:13:22 10° W 21:26:44 69° S 21:50:40 10° ESE daylight
16 Feb - 23:39:26 10° W 23:57:14 56° SSW 00:22:13 10° SE visible
17 Feb - 02:09:11 10° W 02:27:22 30° SW 02:47:05 10° S visible
17 Feb - 17:38:48 10° SSW 17:46:16 36° SE 17:59:24 10° E daylight
17 Feb - 20:01:21 10° WSW 20:12:20 65° S 20:33:28 10° E daylight
17 Feb - 22:26:20 10° W 22:41:45 63° SSW 23:06:43 10° ESE daylight
18 Feb - 00:53:51 10° W 01:12:16 41° SW 01:34:59 10° SSE visible
18 Feb - 03:30:21 10° WSW 03:41:05 14° SW 03:51:56 10° SSW visible
18 Feb - 16:29:13 10° S 16:34:30 20° SE 16:42:12 10° E daylight
18 Feb - 18:49:51 10° SW 18:58:48 55° SSE 19:16:15 10° E daylight
18 Feb - 21:13:50 10° W 21:26:45 67° S 21:50:11 10° ESE daylight
18 Feb - 23:39:54 10° W 23:56:54 51° SSW 00:21:09 10° SE visible
19 Feb - 02:10:27 10° W 02:26:38 25° SW 02:44:31 10° S visible
19 Feb - 17:38:54 10° SW 17:46:10 40° SSE 17:59:23 10° E daylight
19 Feb - 20:01:49 10° WSW 20:12:25 66° S 20:33:05 10° E daylight
19 Feb - 22:26:48 10° W 22:41:37 59° SSW 23:05:55 10° SE daylight
20 Feb - 00:54:36 10° W 01:11:44 35° SW 01:33:11 10° SSE visible
20 Feb - 16:28:49 10° S 16:34:17 24° SE 16:42:45 10° E daylight
20 Feb - 18:50:15 10° WSW 18:58:55 58° SSE 19:15:59 10° E daylight
20 Feb - 21:14:21 10° W 21:26:48 64° S 21:49:35 10° ESE daylight
20 Feb - 23:40:28 10° W 23:56:35 45° SSW 00:19:48 10° SSE visible
21 Feb - 02:12:29 10° W 02:26:00 19° SW 02:41:02 10° S visible
21 Feb - 15:21:55 10° SE 15:22:56 10° SE 15:24:00 10° ESE daylight
21 Feb - 17:39:09 10° SW 17:46:11 45° SSE 17:59:19 10° E daylight
21 Feb - 20:02:21 10° WSW 20:12:35 65° S 20:32:39 10° ESE daylight
21 Feb - 22:27:21 10° W 22:41:31 53° SSW 23:04:54 10° SE daylight
22 Feb - 00:55:39 10° W 01:11:14 29° SW 01:30:53 10° S visible
22 Feb - 16:28:42 10° SSW 16:34:12 28° SE 16:43:06 10° E daylight
22 Feb - 18:50:44 10° WSW 18:59:06 60° S 19:15:43 10° E daylight
22 Feb - 21:14:53 10° W 21:26:51 60° SSW 21:48:51 10° ESE daylight
22 Feb - 23:41:12 10° W 23:56:18 38° SSW 00:18:06 10° SSE visible
23 Feb - 02:16:05 10° WSW 02:25:30 14° SW 02:35:47 10° SSW visible
23 Feb - 15:19:43 10° SSE 15:22:45 14° SE 15:26:31 10° ESE daylight
23 Feb - 17:39:30 10° SW 17:46:20 49° SSE 17:59:14 10° E daylight
23 Feb - 20:02:54 10° W 20:12:47 63° S 20:32:11 10° ESE daylight
23 Feb - 22:27:58 10° W 22:41:26 47° SSW 23:03:39 10° SE daylight
24 Feb - 00:57:12 10° W 01:10:51 23° SW 01:27:54 10° S visible
24 Feb - 16:28:47 10° SSW 16:34:15 33° SSE 16:43:20 10° E daylight
24 Feb - 18:51:16 10° WSW 18:59:21 61° S 19:15:26 10° E daylight
24 Feb - 21:15:28 10° W 21:26:56 54° SSW 21:47:58 10° SE daylight
24 Feb - 23:42:09 10° W 23:56:05 32° SSW 00:15:59 10° SSE visible
25 Feb - 15:19:00 10° S 15:22:41 18° SE 15:27:37 10° E daylight
25 Feb - 17:39:57 10° WSW 17:46:35 52° SSE 17:59:08 10° E daylight
25 Feb - 20:03:28 10° W 20:13:00 59° S 20:31:36 10° ESE daylight
25 Feb - 22:28:42 10° W 22:41:25 40° SSW 23:02:05 10° SSE daylight
